| time (UTC) | temp F | wind direction | speed MPH | gust MPH | rain 1hr in | rain 24hr in | rain mn in | humidity % | barometer mb |
| 20260503041136 | 48 | 360 | 6.0 | 7.0 | 0.00 | 0.00 | 0.00 | 48 | 933.3 |
| 20260503040534 | 48 | 360 | 5.0 | 6.0 | 0.00 | 0.00 | 0.00 | 48 | 933.2 |
| 20260503040041 | 48 | 360 | 5.0 | 6.0 | 0.00 | 0.00 | 0.00 | 48 | 933.3 |
| 20260503035637 | 48 | 360 | 4.0 | 6.0 | 0.00 | 0.00 | 0.00 | 47 | 933.2 |
| 20260503035034 | 48 | 360 | 4.0 | 5.0 | 0.00 | 0.00 | 0.00 | 47 | 933.2 |
| 20260503034539 | 48 | 360 | 4.0 | 5.0 | 0.00 | 0.00 | 0.00 | 47 | 933.3 |
| 20260503034035 | 48 | 360 | 0.0 | 0.0 | 0.00 | 0.00 | 0.00 | 47 | 933.2 |
| 20260503033535 | 49 | 360 | 0.0 | 0.0 | 0.00 | 0.00 | 0.00 | 46 | 933.2 |
| 20260503033035 | 50 | 360 | 0.0 | 0.0 | 0.00 | 0.00 | 0.00 | 46 | 933.2 |
| 20260503032033 | 50 | 360 | 0.0 | 0.0 | 0.00 | 0.00 | 0.00 | 46 | 933.2 |
| 20260503031633 | 49 | 360 | 0.0 | 0.0 | 0.00 | 0.00 | 0.00 | 46 | 933.2 |
| 20260503031033 | 49 | 360 | 0.0 | 0.0 | 0.00 | 0.00 | 0.00 | 46 | 933.1 |
| 20260503030532 | 49 | 360 | 0.0 | 4.0 | 0.00 | 0.00 | 0.00 | 46 | 933.2 |
| 20260503030032 | 50 | 360 | 0.0 | 5.0 | 0.00 | 0.00 | 0.00 | 44 | 933.0 |
| 20260503025532 | 51 | 360 | 2.0 | 5.0 | 0.00 | 0.00 | 0.00 | 44 | 933.0 |
| 20260503025032 | 52 | 360 | 0.0 | 4.0 | 0.00 | 0.00 | 0.00 | 43 | 932.9 |
| 20260503024531 | 52 | 360 | 0.0 | 0.0 | 0.00 | 0.00 | 0.00 | 43 | 932.9 |
| 20260503024032 | 52 | 360 | 0.0 | 1.0 | 0.00 | 0.00 | 0.00 | 42 | 932.9 |
| 20260503023532 | 53 | 360 | 0.0 | 1.0 | 0.00 | 0.00 | 0.00 | 42 | 932.8 |
| 20260503023032 | 54 | 360 | 0.0 | 1.0 | 0.00 | 0.00 | 0.00 | 41 | 932.8 |
| 20260503022032 | 55 | 360 | 0.0 | 2.0 | 0.00 | 0.00 | 0.00 | 39 | 932.8 |
| 20260503021530 | 55 | 360 | 0.0 | 1.0 | 0.00 | 0.00 | 0.00 | 39 | 932.8 |
| 20260503021030 | 56 | 360 | 0.0 | 2.0 | 0.00 | 0.00 | 0.00 | 39 | 932.8 |
| 20260503020531 | 56 | 23 | 1.0 | 6.0 | 0.00 | 0.00 | 0.00 | 38 | 932.8 |
| 20260503020031 | 57 | 360 | 3.0 | 7.0 | 0.00 | 0.00 | 0.00 | 38 | 932.8 |
| 20260503015530 | 58 | 360 | 5.0 | 7.0 | 0.00 | 0.00 | 0.00 | 37 | 932.7 |
| 20260503015029 | 58 | 360 | 4.0 | 9.0 | 0.00 | 0.00 | 0.00 | 36 | 932.7 |
| 20260503014539 | 59 | 26 | 4.0 | 9.0 | 0.00 | 0.00 | 0.00 | 35 | 932.7 |
| 20260503014030 | 60 | 360 | 6.0 | 11.0 | 0.00 | 0.00 | 0.00 | 35 | 932.8 |
| 20260503013530 | 60 | 360 | 8.0 | 13.0 | 0.00 | 0.00 | 0.00 | 35 | 932.8 |
| 20260503013032 | 60 | 360 | 9.0 | 13.0 | 0.00 | 0.00 | 0.00 | 34 | 932.8 |
| 20260503012031 | 61 | 360 | 9.0 | 15.0 | 0.00 | 0.00 | 0.00 | 34 | 932.8 |
| 20260503011535 | 61 | 355 | 10.0 | 15.0 | 0.00 | 0.00 | 0.00 | 34 | 932.8 |
| 20260503011031 | 62 | 341 | 10.0 | 16.0 | 0.00 | 0.00 | 0.00 | 34 | 932.7 |
| 20260503010531 | 62 | 349 | 11.0 | 19.0 | 0.00 | 0.00 | 0.00 | 33 | 932.7 |
| 20260503010029 | 62 | 5 | 12.0 | 19.0 | 0.00 | 0.00 | 0.00 | 32 | 932.8 |
| 20260503005530 | 63 | 360 | 13.0 | 22.0 | 0.00 | 0.00 | 0.00 | 33 | 932.8 |
| 20260503005032 | 63 | 13 | 12.0 | 23.0 | 0.00 | 0.00 | 0.00 | 32 | 932.7 |
| 20260503004529 | 64 | 13 | 18.0 | 23.0 | 0.00 | 0.00 | 0.00 | 31 | 932.8 |
| 20260503004029 | 64 | 355 | 14.0 | 22.0 | 0.00 | 0.00 | 0.00 | 31 | 932.7 |
| 20260503003529 | 64 | 11 | 15.0 | 23.0 | 0.00 | 0.00 | 0.00 | 31 | 932.7 |
| 20260503003030 | 64 | 360 | 15.0 | 23.0 | 0.00 | 0.00 | 0.00 | 31 | 932.7 |
| 20260503002031 | 64 | 5 | 13.0 | 23.0 | 0.00 | 0.00 | 0.00 | 32 | 932.6 |
| 20260503001528 | 64 | 349 | 17.0 | 23.0 | 0.00 | 0.00 | 0.00 | 31 | 932.7 |
| 20260503001027 | 64 | 11 | 14.0 | 24.0 | 0.00 | 0.00 | 0.00 | 31 | 932.6 |
| 20260503000531 | 65 | 360 | 13.0 | 24.0 | 0.00 | 0.00 | 0.00 | 31 | 932.6 |
| 20260503000027 | 65 | 360 | 15.0 | 24.0 | 0.00 | 0.00 | 0.00 | 31 | 932.6 |
| 20260502235527 | 65 | 360 | 19.0 | 24.0 | 0.00 | 0.00 | 0.00 | 30 | 932.6 |
| 20260502235027 | 66 | 348 | 14.0 | 24.0 | 0.00 | 0.00 | 0.00 | 30 | 932.6 |
| 20260502234527 | 66 | 336 | 18.0 | 24.0 | 0.00 | 0.00 | 0.00 | 30 | 932.5 |
| 20260502234027 | 66 | 9 | 14.0 | 22.0 | 0.00 | 0.00 | 0.00 | 30 | 932.5 |
| 20260502233526 | 66 | 5 | 16.0 | 27.0 | 0.00 | 0.00 | 0.00 | 30 | 932.5 |
| 20260502233034 | 66 | 355 | 18.0 | 27.0 | 0.00 | 0.00 | 0.00 | 30 | 932.5 |
| 20260502232026 | 67 | 348 | 15.0 | 26.0 | 0.00 | 0.00 | 0.00 | 29 | 932.4 |
| 20260502231534 | 67 | 18 | 16.0 | 26.0 | 0.00 | 0.00 | 0.00 | 29 | 932.5 |
| 20260502231026 | 67 | 355 | 19.0 | 26.0 | 0.00 | 0.00 | 0.00 | 29 | 932.4 |
| 20260502230526 | 67 | 347 | 17.0 | 24.0 | 0.00 | 0.00 | 0.00 | 30 | 932.4 |
| 20260502230025 | 66 | 342 | 11.0 | 20.0 | 0.00 | 0.00 | 0.00 | 30 | 932.4 |
| 20260502225525 | 67 | 5 | 14.0 | 22.0 | 0.00 | 0.00 | 0.00 | 30 | 932.4 |
| 20260502225025 | 68 | 344 | 18.0 | 25.0 | 0.00 | 0.00 | 0.00 | 29 | 932.4 |
| 20260502224530 | 68 | 342 | 19.0 | 26.0 | 0.00 | 0.00 | 0.00 | 30 | 932.4 |
| 20260502224025 | 68 | 360 | 15.0 | 26.0 | 0.00 | 0.00 | 0.00 | 30 | 932.3 |
| 20260502223525 | 67 | 329 | 18.0 | 27.0 | 0.00 | 0.00 | 0.00 | 29 | 932.4 |
| 20260502223025 | 68 | 341 | 18.0 | 27.0 | 0.00 | 0.00 | 0.00 | 29 | 932.4 |
| 20260502222024 | 67 | 338 | 11.0 | 24.0 | 0.00 | 0.00 | 0.00 | 30 | 932.4 |
| 20260502221524 | 66 | 347 | 15.0 | 24.0 | 0.00 | 0.00 | 0.00 | 32 | 932.4 |
| 20260502221024 | 68 | 360 | 16.0 | 24.0 | 0.00 | 0.00 | 0.00 | 31 | 932.4 |
| 20260502220523 | 67 | 333 | 14.0 | 23.0 | 0.00 | 0.00 | 0.00 | 31 | 932.5 |
| 20260502220032 | 68 | 335 | 16.0 | 24.0 | 0.00 | 0.00 | 0.00 | 31 | 932.6 |
| 20260502215523 | 68 | 332 | 16.0 | 27.0 | 0.00 | 0.00 | 0.00 | 32 | 932.5 |
| 20260502215022 | 67 | 316 | 18.0 | 27.0 | 0.00 | 0.00 | 0.00 | 33 | 932.6 |
| 20260502214524 | 66 | 5 | 16.0 | 23.0 | 0.00 | 0.00 | 0.00 | 35 | 932.7 |
| 20260502214022 | 65 | 360 | 16.0 | 23.0 | 0.00 | 0.00 | 0.00 | 35 | 932.6 |
| 20260502213522 | 65 | 334 | 12.0 | 23.0 | 0.00 | 0.00 | 0.00 | 35 | 932.6 |
| 20260502213022 | 66 | 340 | 14.0 | 23.0 | 0.00 | 0.00 | 0.00 | 35 | 932.7 |
| 20260502212022 | 67 | 340 | 17.0 | 26.0 | 0.00 | 0.00 | 0.00 | 34 | 932.7 |
| 20260502211533 | 68 | 355 | 14.0 | 25.0 | 0.00 | 0.00 | 0.00 | 34 | 932.8 |
| 20260502211027 | 67 | 322 | 18.0 | 25.0 | 0.00 | 0.00 | 0.00 | 33 | 932.8 |
| 20260502210520 | 67 | 348 | 16.0 | 25.0 | 0.00 | 0.00 | 0.00 | 34 | 932.9 |
| 20260502210020 | 67 | 347 | 17.0 | 26.0 | 0.00 | 0.00 | 0.00 | 34 | 933.0 |
| 20260502205524 | 68 | 342 | 16.0 | 26.0 | 0.00 | 0.00 | 0.00 | 34 | 932.9 |
| 20260502205020 | 67 | 332 | 16.0 | 26.0 | 0.00 | 0.00 | 0.00 | 34 | 932.9 |
| 20260502204520 | 66 | 355 | 17.0 | 24.0 | 0.00 | 0.00 | 0.00 | 33 | 933.0 |
| 20260502204020 | 67 | 347 | 13.0 | 22.0 | 0.00 | 0.00 | 0.00 | 35 | 933.0 |
| 20260502203521 | 67 | 335 | 13.0 | 27.0 | 0.00 | 0.00 | 0.00 | 34 | 933.0 |
| 20260502203019 | 67 | 339 | 13.0 | 27.0 | 0.00 | 0.00 | 0.00 | 35 | 933.0 |
| 20260502202023 | 68 | 5 | 17.0 | 26.0 | 0.00 | 0.00 | 0.00 | 33 | 933.0 |
| 20260502201520 | 68 | 11 | 19.0 | 27.0 | 0.00 | 0.00 | 0.00 | 33 | 933.0 |
| 20260502201020 | 67 | 350 | 11.0 | 25.0 | 0.00 | 0.00 | 0.00 | 34 | 933.0 |
| 20260502200520 | 68 | 17 | 18.0 | 25.0 | 0.00 | 0.00 | 0.00 | 34 | 932.9 |
| 20260502200020 | 67 | 11 | 12.0 | 27.0 | 0.00 | 0.00 | 0.00 | 34 | 933.0 |
| 20260502195518 | 66 | 17 | 17.0 | 27.0 | 0.00 | 0.00 | 0.00 | 34 | 933.0 |
| 20260502195018 | 66 | 322 | 16.0 | 25.0 | 0.00 | 0.00 | 0.00 | 34 | 933.0 |
| 20260502194519 | 67 | 5 | 15.0 | 27.0 | 0.00 | 0.00 | 0.00 | 35 | 933.0 |
| 20260502194018 | 66 | 17 | 18.0 | 27.0 | 0.00 | 0.00 | 0.00 | 35 | 933.0 |
| 20260502193518 | 66 | 360 | 14.0 | 27.0 | 0.00 | 0.00 | 0.00 | 34 | 933.0 |
| 20260502193019 | 67 | 355 | 20.0 | 27.0 | 0.00 | 0.00 | 0.00 | 34 | 933.1 |
| 20260502192017 | 67 | 360 | 15.0 | 24.0 | 0.00 | 0.00 | 0.00 | 36 | 933.0 |
| 20260502191523 | 66 | 355 | 15.0 | 27.0 | 0.00 | 0.00 | 0.00 | 35 | 933.1 |
| 20260502191017 | 66 | 15 | 14.0 | 27.0 | 0.00 | 0.00 | 0.00 | 35 | 933.0 |
| 20260502190517 | 67 | 335 | 10.0 | 28.0 | 0.00 | 0.00 | 0.00 | 34 | 932.9 |
| 20260502190016 | 67 | 355 | 22.0 | 28.0 | 0.00 | 0.00 | 0.00 | 35 | 933.1 |
| 20260502185519 | 67 | 355 | 21.0 | 28.0 | 0.00 | 0.00 | 0.00 | 35 | 933.1 |
| 20260502185017 | 66 | 360 | 20.0 | 28.0 | 0.00 | 0.00 | 0.00 | 35 | 933.1 |
| 20260502184518 | 67 | 12 | 14.0 | 28.0 | 0.00 | 0.00 | 0.00 | 34 | 933.0 |
| 20260502184017 | 67 | 9 | 16.0 | 28.0 | 0.00 | 0.00 | 0.00 | 34 | 933.0 |
| 20260502183516 | 67 | 334 | 21.0 | 28.0 | 0.00 | 0.00 | 0.00 | 34 | 933.0 |
| 20260502183016 | 67 | 348 | 16.0 | 23.0 | 0.00 | 0.00 | 0.00 | 35 | 933.1 |
| 20260502182018 | 66 | 344 | 16.0 | 27.0 | 0.00 | 0.00 | 0.00 | 35 | 932.9 |
| 20260502181516 | 67 | 322 | 14.0 | 28.0 | 0.00 | 0.00 | 0.00 | 34 | 933.1 |
| 20260502181016 | 66 | 333 | 15.0 | 25.0 | 0.00 | 0.00 | 0.00 | 35 | 933.1 |
| 20260502180517 | 66 | 347 | 18.0 | 26.0 | 0.00 | 0.00 | 0.00 | 34 | 933.1 |
| 20260502170513 | 64 | 345 | 15.0 | 21.0 | 0.00 | 0.00 | 0.00 | 38 | 933.0 |
| 20260502164009 | 64 | 351 | 17.0 | 26.0 | 0.00 | 0.00 | 0.00 | 40 | 932.9 |
| 20260502163512 | 63 | 11 | 18.0 | 24.0 | 0.00 | 0.00 | 0.00 | 39 | 932.9 |
| 20260502163009 | 64 | 10 | 18.0 | 24.0 | 0.00 | 0.00 | 0.00 | 40 | 932.9 |
| 20260502162012 | 64 | 5 | 15.0 | 22.0 | 0.00 | 0.00 | 0.00 | 40 | 932.7 |
| 20260502161508 | 64 | 355 | 17.0 | 22.0 | 0.00 | 0.00 | 0.00 | 41 | 932.7 |
| 20260502161010 | 63 | 355 | 16.0 | 23.0 | 0.00 | 0.00 | 0.00 | 41 | 932.8 |
| 20260502160510 | 64 | 344 | 15.0 | 23.0 | 0.00 | 0.00 | 0.00 | 40 | 932.6 |
| 20260502152002 | 62 | 344 | 13.0 | 18.0 | 0.00 | 0.00 | 0.00 | 42 | 932.4 |
| 20260502151504 | 63 | 344 | 11.0 | 22.0 | 0.00 | 0.00 | 0.00 | 43 | 932.4 |
| 20260502151002 | 62 | 340 | 12.0 | 22.0 | 0.00 | 0.00 | 0.00 | 42 | 932.5 |
| 20260502150603 | 62 | 360 | 13.0 | 19.0 | 0.00 | 0.00 | 0.00 | 42 | 932.5 |
| 20260502150502 | 62 | 341 | 13.0 | 19.0 | 0.00 | 0.00 | 0.00 | 43 | 932.5 |
| 20260502150114 | 61 | 351 | 11.0 | 18.0 | 0.00 | 0.00 | 0.00 | 42 | 932.4 |
| 20260502130542 | 50 | 360 | 6.0 | 9.0 | 0.00 | 0.00 | 0.00 | 56 | 932.2 |
| 20260502123541 | 49 | 360 | 5.0 | 10.0 | 0.00 | 0.00 | 0.00 | 55 | 932.2 |
| 20260502123041 | 48 | 360 | 6.0 | 10.0 | 0.00 | 0.00 | 0.00 | 55 | 932.1 |
| 20260502122641 | 47 | 360 | 4.0 | 6.0 | 0.00 | 0.00 | 0.00 | 57 | 932.0 |
| 20260502122041 | 47 | 360 | 4.0 | 6.0 | 0.00 | 0.00 | 0.00 | 56 | 932.0 |
| 20260502121545 | 47 | 360 | 4.0 | 6.0 | 0.00 | 0.00 | 0.00 | 55 | 932.0 |
| 20260502121039 | 48 | 360 | 3.0 | 9.0 | 0.00 | 0.00 | 0.00 | 54 | 931.9 |
| 20260502120539 | 49 | 360 | 6.0 | 10.0 | 0.00 | 0.00 | 0.00 | 52 | 931.9 |
| 20260502115540 | 53 | 360 | 9.0 | 14.0 | 0.00 | 0.00 | 0.00 | 46 | 931.5 |
| 20260502115039 | 53 | 360 | 10.0 | 16.0 | 0.00 | 0.00 | 0.00 | 46 | 931.2 |
| 20260502114538 | 53 | 360 | 12.0 | 19.0 | 0.00 | 0.00 | 0.00 | 46 | 931.2 |
| 20260502114039 | 53 | 360 | 12.0 | 21.0 | 0.00 | 0.00 | 0.00 | 46 | 931.1 |
| 20260502113538 | 53 | 360 | 13.0 | 21.0 | 0.00 | 0.00 | 0.00 | 46 | 931.1 |
| 20260502113038 | 52 | 360 | 12.0 | 21.0 | 0.00 | 0.00 | 0.00 | 47 | 931.2 |
| 20260502112036 | 50 | 360 | 14.0 | 23.0 | 0.00 | 0.00 | 0.00 | 50 | 931.5 |
| 20260502111536 | 49 | 360 | 10.0 | 14.0 | 0.00 | 0.00 | 0.00 | 52 | 931.7 |
| 20260502111036 | 48 | 360 | 9.0 | 12.0 | 0.00 | 0.00 | 0.00 | 53 | 931.7 |
| 20260502110535 | 48 | 360 | 8.0 | 10.0 | 0.00 | 0.00 | 0.00 | 52 | 931.9 |
| 20260502110033 | 48 | 360 | 6.0 | 8.0 | 0.00 | 0.00 | 0.00 | 51 | 932.0 |
| 20260502105633 | 49 | 360 | 6.0 | 10.0 | 0.00 | 0.00 | 0.00 | 50 | 932.1 |
| 20260502105033 | 49 | 360 | 7.0 | 12.0 | 0.00 | 0.00 | 0.00 | 49 | 931.9 |
| 20260502104542 | 50 | 360 | 9.0 | 15.0 | 0.00 | 0.00 | 0.00 | 48 | 931.8 |
| 20260502104028 | 50 | 360 | 10.0 | 21.0 | 0.00 | 0.00 | 0.00 | 47 | 931.9 |
| 20260502103528 | 50 | 360 | 13.0 | 21.0 | 0.00 | 0.00 | 0.00 | 47 | 931.6 |
| 20260502103028 | 50 | 360 | 13.0 | 19.0 | 0.00 | 0.00 | 0.00 | 46 | 931.7 |
| 20260502102028 | 52 | 360 | 11.0 | 15.0 | 0.00 | 0.00 | 0.00 | 44 | 931.2 |
| 20260502101526 | 52 | 360 | 9.0 | 14.0 | 0.00 | 0.00 | 0.00 | 43 | 931.1 |
| 20260502101030 | 53 | 360 | 9.0 | 14.0 | 0.00 | 0.00 | 0.00 | 43 | 931.2 |
| 20260502100526 | 53 | 360 | 10.0 | 13.0 | 0.00 | 0.00 | 0.00 | 42 | 931.2 |
| 20260502091525 | 53 | 360 | 7.0 | 12.0 | 0.00 | 0.00 | 0.00 | 41 | 931.5 |
| 20260502091023 | 53 | 360 | 6.0 | 10.0 | 0.00 | 0.00 | 0.00 | 41 | 931.5 |
| 20260502090522 | 53 | 360 | 5.0 | 13.0 | 0.00 | 0.00 | 0.00 | 41 | 931.6 |
| 20260502071525 | 51 | 360 | 6.0 | 13.0 | 0.00 | 0.00 | 0.00 | 41 | 932.2 |
| 20260502071014 | 51 | 360 | 8.0 | 14.0 | 0.00 | 0.00 | 0.00 | 41 | 932.1 |
| 20260502070512 | 51 | 360 | 9.0 | 14.0 | 0.00 | 0.00 | 0.00 | 40 | 932.1 |
| 20260502070011 | 51 | 360 | 10.0 | 16.0 | 0.00 | 0.00 | 0.00 | 40 | 932.1 |
| 20260502065510 | 52 | 360 | 10.0 | 19.0 | 0.00 | 0.00 | 0.00 | 40 | 932.2 |
| 20260502065008 | 52 | 360 | 13.0 | 22.0 | 0.00 | 0.00 | 0.00 | 39 | 932.2 |
| 20260502064511 | 53 | 360 | 13.0 | 23.0 | 0.00 | 0.00 | 0.00 | 38 | 932.3 |
| 20260502064006 | 53 | 360 | 15.0 | 24.0 | 0.00 | 0.00 | 0.00 | 37 | 932.3 |
| 20260502063505 | 53 | 360 | 15.0 | 24.0 | 0.00 | 0.00 | 0.00 | 37 | 932.2 |
| 20260502063005 | 53 | 360 | 15.0 | 24.0 | 0.00 | 0.00 | 0.00 | 37 | 932.3 |
| 20260502062004 | 54 | 360 | 14.0 | 23.0 | 0.00 | 0.00 | 0.00 | 36 | 932.4 |
| 20260502061502 | 54 | 360 | 17.0 | 23.0 | 0.00 | 0.00 | 0.00 | 36 | 932.4 |
| 20260502061002 | 53 | 360 | 14.0 | 21.0 | 0.00 | 0.00 | 0.00 | 36 | 932.6 |
| 20260502060501 | 53 | 360 | 14.0 | 21.0 | 0.00 | 0.00 | 0.00 | 36 | 932.6 |
| 20260502060001 | 53 | 360 | 14.0 | 21.0 | 0.00 | 0.00 | 0.00 | 36 | 932.7 |
| 20260502055604 | 53 | 360 | 13.0 | 21.0 | 0.00 | 0.00 | 0.00 | 36 | 932.7 |
| 20260502055102 | 53 | 360 | 13.0 | 20.0 | 0.00 | 0.00 | 0.00 | 36 | 932.8 |
| 20260502054600 | 53 | 360 | 13.0 | 21.0 | 0.00 | 0.00 | 0.00 | 36 | 932.8 |
| 20260502054100 | 53 | 360 | 13.0 | 20.0 | 0.00 | 0.00 | 0.00 | 35 | 932.9 |
| 20260502053603 | 53 | 360 | 13.0 | 19.0 | 0.00 | 0.00 | 0.00 | 35 | 933.0 |
| 20260502053058 | 53 | 360 | 13.0 | 20.0 | 0.00 | 0.00 | 0.00 | 35 | 932.8 |
| 20260502052700 | 53 | 360 | 12.0 | 20.0 | 0.00 | 0.00 | 0.00 | 34 | 933.0 |
| 20260502052059 | 54 | 360 | 11.0 | 20.0 | 0.00 | 0.00 | 0.00 | 34 | 933.1 |
| 20260502051654 | 54 | 360 | 13.0 | 20.0 | 0.00 | 0.00 | 0.00 | 34 | 933.2 |
| 20260502051057 | 54 | 360 | 13.0 | 19.0 | 0.00 | 0.00 | 0.00 | 34 | 933.2 |
| 20260502050557 | 54 | 360 | 9.0 | 15.0 | 0.00 | 0.00 | 0.00 | 33 | 933.3 |
| 20260502050100 | 53 | 360 | 10.0 | 15.0 | 0.00 | 0.00 | 0.00 | 33 | 933.3 |
| 20260502045557 | 53 | 360 | 10.0 | 15.0 | 0.00 | 0.00 | 0.00 | 33 | 933.3 |
| 20260502045056 | 53 | 360 | 10.0 | 15.0 | 0.00 | 0.00 | 0.00 | 33 | 933.4 |
| 20260502044606 | 53 | 360 | 9.0 | 13.0 | 0.00 | 0.00 | 0.00 | 34 | 933.5 |
| 20260502044054 | 53 | 360 | 8.0 | 13.0 | 0.00 | 0.00 | 0.00 | 34 | 933.5 |
| 20260502043555 | 53 | 360 | 9.0 | 13.0 | 0.00 | 0.00 | 0.00 | 34 | 933.5 |
| 20260502043054 | 52 | 360 | 8.0 | 12.0 | 0.00 | 0.00 | 0.00 | 35 | 933.6 |
| 20260502042655 | 52 | 360 | 7.0 | 12.0 | 0.00 | 0.00 | 0.00 | 35 | 933.6 |
| 20260502042055 | 52 | 360 | 7.0 | 12.0 | 0.00 | 0.00 | 0.00 | 35 | 933.6 |
| 20260502041555 | 52 | 360 | 7.0 | 12.0 | 0.00 | 0.00 | 0.00 | 35 | 933.7 |